PROBA-1 1 26958U 01049B 26034.29473293 .00003255 00000+0 21579-3 0 9999 2 26958 97.9599 38.2012 0054840 214.4719 145.2947 15.06827165323455 CUTE-1 (CO-55) 1 27844U 03031E 26034.28074081 .00000390 00000+0 18801-3 0 9999 2 27844 98.6772 44.5100 0009039 208.8808 151.1871 14.24235603172616 CUBESAT XI-IV (CO-57) 1 27848U 03031J 26033.49974978 .00000306 00000+0 15349-3 0 9990 2 27848 98.6800 43.5598 0008627 230.8154 129.2259 14.23534439172213 APRIZESAT 4 1 35684U 09041D 26034.19250747 .00000992 00000+0 12521-3 0 9993 2 35684 98.1556 106.7931 0044222 37.5802 322.8487 14.83635803891494 APRIZESAT 3 1 35686U 09041F 26033.85937426 .00002312 00000+0 20542-3 0 9993 2 35686 98.1830 180.8559 0062789 149.9241 210.5608 14.95720823896294 PROBA-2 1 36037U 09059B 26034.05524475 .00000326 00000+0 86678-4 0 9998 2 36037 98.2400 219.2770 0012708 339.9426 20.1270 14.54763360862025 APRIZESAT 5 1 37792U 11044E 26034.22651258 .00001442 00000+0 19018-3 0 9996 2 37792 98.2390 323.5662 0053929 74.4468 286.2688 14.80739132778964 APRIZESAT 6 1 37793U 11044F 26034.27470359 .00000948 00000+0 14129-3 0 9991 2 37793 98.2446 302.0094 0043818 152.7738 323.8908 14.76676826777387 PROBA-V 1 39159U 13021A 26034.22525883 .00000082 00000+0 53872-4 0 9992 2 39159 98.3451 19.5420 0004597 150.6583 209.4856 14.23564248662055 APRIZESAT 7 1 39416U 13066A 26033.83278463 .00001994 00000+0 20447-3 0 9996 2 39416 97.7545 349.1570 0034633 298.1817 61.5905 14.91147168661209 APRIZESAT 8 1 39425U 13066K 26033.80655084 .00001890 00000+0 21164-3 0 9993 2 39425 97.8070 343.3075 0046555 10.1013 350.1128 14.87298494659693 BUGSAT-1 (TITA) 1 40014U 14033E 26034.27655890 .00006817 00000+0 37569-3 0 9991 2 40014 98.0488 119.1474 0027733 278.1540 81.6544 15.14033330635560 SAUDISAT 4 1 40016U 14033G 26034.20248410 .00001209 00000+0 16648-3 0 9997 2 40016 97.7348 185.1526 0045716 148.0679 212.3319 14.79311067626269 APRIZESAT 9 1 40018U 14033J 26034.21607191 .00000960 00000+0 14915-3 0 9993 2 40018 97.8830 170.8795 0065078 271.1050 88.2704 14.73991255623825 APRIZESAT 10 1 40019U 14033K 26034.24142376 .00000631 00000+0 10705-3 0 9994 2 40019 97.9436 164.3719 0078618 342.4924 17.3575 14.70693009622561 TECHDEMOSAT-1 (TDS-1) 1 40076U 14037H 26033.96067446 .00012793 00000+0 77477-3 0 9994 2 40076 98.3723 13.1983 0007108 17.7400 342.4074 15.10737746627944 TECHNOSAT 1 42829U 17042E 26034.16707336 .00004348 00000+0 31831-3 0 9994 2 42829 97.4093 197.1461 0017780 185.7252 174.3774 15.03943559466554 FLYING LAPTOP 1 42831U 17042G 26034.29869515 .00003631 00000+0 29376-3 0 9994 2 42831 97.4212 195.5240 0015315 215.0086 145.0133 15.00270696466377 HAWK-A 1 43765U 18099H 26034.18127378 .00008480 00000+0 36054-3 0 9994 2 43765 97.4121 88.2095 0037333 38.8310 321.5598 15.22633016392696 HAWK-B 1 43794U 18099AN 26034.11525985 .00007225 00000+0 32388-3 0 9997 2 43794 97.4170 87.8244 0034616 55.4842 304.9654 15.20978293392649 HAWK-C 1 43799U 18099AT 26034.11698637 .00009628 00000+0 37035-3 0 9990 2 43799 97.4101 88.4366 0043670 41.1869 319.2650 15.25700377393457 SALSAT 1 46495U 20068K 26034.22273685 .00010505 00000+0 39328-3 0 9992 2 46495 97.8824 29.3809 0011951 58.2989 301.9412 15.27436782294894 HAWK-2C 1 47502U 21006CT 26034.08063854 .00009934 00000+0 31689-3 0 9990 2 47502 97.2483 81.1016 0006121 335.4522 24.6428 15.32687856278941 HAWK-2A 1 47505U 21006CW 26034.08415387 .00008789 00000+0 28091-3 0 9995 2 47505 97.2526 81.7038 0005849 339.6672 20.4336 15.32662143278944 HAWK-2B 1 47508U 21006CZ 26034.08091037 .00008751 00000+0 27945-3 0 9996 2 47508 97.2395 80.2587 0006422 336.5143 23.5805 15.32688107278944 HAWK-3B 1 48931U 21059BE 26034.23612539 .00040866 00000+0 52783-3 0 9999 2 48931 97.6701 219.3457 0006467 97.4486 262.7504 15.58838428256910 HAWK-3C 1 48948U 21059BX 26034.30011272 .00037131 00000+0 48008-3 0 9998 2 48948 97.6856 224.8419 0006970 97.6393 262.5655 15.58826308256926 HAWK-3A 1 48957U 21059CG 26034.23575103 .00038585 00000+0 49876-3 0 9996 2 48957 97.6790 222.0928 0006547 97.6675 262.5324 15.58828803256915 HAWK-5C 1 52754U 22057Y 26034.30623820 .00022550 00000+0 46474-3 0 9999 2 52754 97.6411 186.0453 0004939 188.3879 171.7288 15.45910407205624 HAWK-5B 1 52756U 22057AA 26034.30608641 .00022246 00000+0 45854-3 0 9998 2 52756 97.6394 184.3904 0004976 184.1211 175.9997 15.45909159205628 HAWK-5A 1 52757U 22057AB 26034.30582949 .00023434 00000+0 48275-3 0 9991 2 52757 97.6404 185.2209 0005396 185.5977 174.5213 15.45912758205625 HAWK-6B 1 55324U 23011A 26034.28238886 .00006727 00000+0 30173-3 0 9994 2 55324 40.5149 52.2316 0003031 202.1435 157.9243 15.21414736167433 HAWK-6C 1 55326U 23011C 26034.08485337 .00006795 00000+0 30468-3 0 9991 2 55326 40.4835 50.3393 0002679 188.3006 171.7759 15.21410787167412 HAWK-6A 1 55327U 23011D 26034.08486345 .00006441 00000+0 28930-3 0 9991 2 55327 40.4993 51.9000 0002379 193.5854 166.4891 15.21410221167417 HAWK-7A 1 56191U 23054P 26033.62995332 .00007986 00000+0 29613-3 0 9992 2 56191 97.2840 284.3322 0007262 206.4766 153.6104 15.27849080156495 HAWK-7B 1 56193U 23054R 26034.21924826 .00007293 00000+0 27076-3 0 9992 2 56193 97.2914 283.1223 0008218 215.0066 145.0634 15.27834950156580 HAWK-7C 1 56200U 23054Y 26033.43310021 .00007429 00000+0 27555-3 0 9993 2 56200 97.2900 283.1649 0007313 216.4951 143.5791 15.27864866156462